User: anonymous   Login
Location: ??????
(38.3184°N, 23.6932°E)
Time: 15:36:17
(UTC+00:00)
Language:

H-2A R/B - Orbit

View from above orbital plane
View from above orbital plane
View from above satellite
View from above satellite

Ground track
Ground track

The orbit data is extracted from the following two-line orbital elements,

1 38341U 12025E   22022.82076220  .00000581  00000-0  74840-4 0  9995
2 38341  98.5179 228.2936 0055603 153.8061 206.5984 14.84402475524043
Epoch (UTC): 22 January 2022 19:41:53
Eccentricity: 0.0055603
inclination: 98.5179°
perigee height: 576 km
apogee height: 654 km
right ascension of ascending node: 228.2936°
argument of perigee: 153.8061°
revolutions per day: 14.84402475
mean anomaly at epoch: 206.5984°
orbit number at epoch: 52404

The dashed part of the orbit path shows where the satellite is in the earth's shadow,  

DLR